Weather Service Report


999 
ASUS41 KAKQ 191115
RWRAKQ

REGIONAL WEATHER ROUNDUP
NATIONAL WEATHER SERVICE WAKEFIELD VA
600 AM EST SUN FEB 19 2017

Note: "fair" indicates few or no clouds below 12,000 feet with no
significant weather and/or obstructions to visibility. * = Denotes
station may not report precipitation (e.g., rain,snow,etc.),
thunder or fog.

VAZ042-051-052>054-056-191200-
NORTHERN VIRGINIA
  
CITY           SKY/WX    TMP DP  RH WIND       PRES   REMARKS
WASH NATIONAL  CLOUDY    59  47  64 NW7       29.85R                  
DULLES         CLOUDY    56  46  69 NW5       29.85R                  
FORT BELVOIR   CLOUDY    52  48  86 CALM      29.84S                  
QUANTICO       CLOUDY    52  46  80 CALM      29.86R                  
FREDERICKSBRG* CLOUDY    50  43  75 CALM      29.85R                  
STAFFORD*      CLOUDY    51  47  86 CALM      29.89R                  
WARRENTON      CLOUDY    58  46  63 NE5       29.84S                  
CULPEPER*      CLOUDY    53  49  86 CALM      29.85S                  
MANASSAS*      CLOUDY    50  47  89 CALM      29.85R                  
LEESBURG*      LGT RAIN  57  48  72 NW6       29.86R                  
WINCHESTER     CLOUDY    50  46  87 NW5       29.87R                  
FRONT ROYAL*   CLOUDY    50  50 100 CALM      29.86R                  
LURAY*         CLOUDY    46  46 100 CALM      29.87R                  
$$

VAZ048-049-060>072-079>083-191200-
CENTRAL AND SOUTH CENTRAL VIRGINIA
  
CITY           SKY/WX    TMP DP  RH WIND       PRES   REMARKS
RICHMOND       CLEAR     52  41  66 W6        29.84R                  
CHESTERFIELD*  FAIR      52  30  43 W6        29.85R                  
PETERSBURG*    CLEAR     47  40  76 W5        29.85R                  
HANOVER        CLEAR     48  37  65 CALM      29.85R                  
TAPPAHANNOCK*  CLEAR     55  27  33 W5        29.84R                  
QUINTON*       FAIR      51  42  71 W5        29.83R                  
CHARLOTTSVILLE PTCLDY    58  38  47 W3        29.84R                  
GORDONSVILLE*  PTSUNNY   51  41  67 CALM      29.84R                  
ORANGE*        CLOUDY    52  37  58 CALM      29.86R                  
LOUISA*        CLOUDY    50  39  66 CALM      29.84R                  
BUMPASS*       FAIR      46  35  66 CALM      29.84R                  
FARMVILLE*     CLEAR     43  39  86 CALM      29.85R                  
CREWE*         FAIR      49  41  74 W3        29.85R                  
FORT PICKETT*  FAIR      47  38  70 W7        29.85R                  
CHASE CITY*    FAIR      47  42  85 W3        29.87S                  
CLARKSVILLE*   FAIR      46  41  81 W3        29.87S                  
SOUTH HILL*    CLEAR     47  43  84 SW3       29.92R                  
LAWRENCEVILLE* FAIR      48  42  78 CALM      29.85S                  
EMPORIA*       CLEAR     45  41  87 CALM      29.87S                  
$$

VAZ088>098-191200-
SOUTHEAST VIRGINIA
  
CITY           SKY/WX    TMP DP  RH WIND       PRES   REMARKS
NORFOLK        CLEAR     50  42  74 SW6       29.84R                  
VIRGINIA BEACH PTCLDY    51  39  63 SW6       29.84S                  
NORFOLK NAVAL  PTCLDY    55  43  63 SW7       29.86R                  
WEST POINT*    CLEAR     46  39  77 CALM      29.85R                  
SALUDA*        FAIR      53  43  69 W3        29.82S                  
NEWPORT NEWS   CLEAR     49  42  77 SW8       29.84S                  
LANGLEY AFB    CLEAR     55  44  67 SW10      29.83S                  
FORT EUSTIS    CLEAR     49  42  79 S5        29.82R                  
WILLIAMSBURG*  CLEAR     54  45  71 CALM      29.85R                  
HR EXEC AP*    FAIR      45  37  76 CALM      29.84R                  
FRANKLIN*      CLEAR     52  42  70 CALM      29.86S                  
US460-WAKEFLD  CLEAR     47  43  86 SW3       29.85R                  
$$

VAZ020-022-025-037-045-191200-
WEST CENTRAL AND SOUTHWEST VIRGINIA
  
CITY           SKY/WX    TMP DP  RH WIND       PRES   REMARKS
STAUNTON*      CLOUDY    42  39  87 CALM      29.90R                  
WAYNESBORO*    MOSUNNY   48  35  61 CALM      29.88R                  
HOT SPRINGS VA CLOUDY    41  37  87 W21G28    29.90S                  
LYNCHBURG      CLEAR     46  33  60 W5        29.89R                  
DANVILLE       CLEAR     43  40  89 SW7       29.91R                  
SOUTH BOSTON*  FAIR      46  42  86 CALM      29.89R                  
MARTINSVILLE   CLEAR     35  33  89 CALM      29.95R                  
ROANOKE        PTCLDY    54  39  57 W12       29.94R                  
BLACKSBURG     CLOUDY    49  40  70 W7G21     29.97F                  
DUBLIN*        CLOUDY    50  42  72 W7        29.97F                  
MARION*        CLOUDY    46  44  95 W9        29.99F FOG              
HILLSVILLE*    CLOUDY    45  43  92 NW12      29.95S                  
RICHLANDS*     CLOUDY    43  43 100 W3        29.99S                  
WISE*          CLOUDY    45  45 100 CALM      30.01S                  
ABINGDON*      CLOUDY    47  47 100 W5        30.00S FOG              
$$

MDZ021>025-VAZ099-100-191200-
SOUTHERN MARYLAND AND THE DELMARVA PENINSULA
  
CITY           SKY/WX    TMP DP  RH WIND       PRES   REMARKS
PATUXENT RIVER CLOUDY    54  39  57 NW6       29.83R                  
BAY BRIDGE APT CLOUDY    54  41  62 CALM      29.82R                  
LEONARDTOWN    CLOUDY    55  36  47 W5        29.85R                  
DOVER          CLOUDY    56  40  55 SW8       29.80R                  
GEORGETOWN     CLOUDY    57  36  45 W3        29.82R                  
EASTON         CLOUDY    55  36  48 W3        29.86R                  
CAMBRIDGE      CLOUDY    55  36  47 W3        29.82R                  
SALISBURY      CLOUDY    55  38  52 W7        29.81F                  
OCEAN CITY     CLOUDY    58  37  45 W8        29.82S                  
WALLOPS ISLAND PTCLDY    56  40  55 W7        29.82S                  
ACCOMACK*      CLEAR     57  40  52 W7        29.82F                  
$$

NCZ012>017-030>032-191200-
NORTH CENTRAL AND EASTERN NORTH CAROLINA
  
CITY           SKY/WX    TMP DP  RH WIND       PRES   REMARKS
ROANOKE RAPIDS FAIR      46  43  87 SW3       29.87R                  
RALEIGH        PTCLDY    46  42  86 SW5       29.91R                  
ELIZABETH CITY CLEAR     49  41  74 SW8       29.86S                  
AHOSKIE*         N/A     47  42  83 CALM      29.87S                  
EDENTON*       CLEAR     55  44  66 W3        29.88R                  
CURRITUCK*     CLEAR     53  41  63 SW3       29.86S                  
KILL DEVIL HLS NOT AVBL                                               
MANTEO         CLEAR     50  44  78 CALM      29.87F                  
CAPE HATTERAS  MOCLDY    57  48  72 VRB3      29.87F                  
TARBORO*       NOT AVBL                                               
GOLDSBORO      PTCLDY    49  47  91 W6        29.88S                  
WASHINGTON     CLEAR     50  42  73 W3        29.89R                  
GREENVILLE     CLEAR     50  43  76 CALM      29.91R                  
NEW BERN       CLEAR     51  44  77 W5        29.89F                  
WILMINGTON     CLEAR     51  46  83 W7        29.92R                  
$$

VAZ048-191200-
ELSEWHERE
  
CITY           SKY/WX    TMP DP  RH WIND       PRES   REMARKS
HARRISBURG PA  CLOUDY    53  37  54 NW10      29.81R                  
BALTIMORE      CLOUDY    58  40  51 W9        29.81R                  
ANNAPOLIS      CLOUDY    61  38  42 W5        29.81R                  
ANDREWS AFB    CLOUDY    57  44  63 W8        29.83R                  
PHILADELPHIA   CLOUDY    58  33  39 W9        29.79R                  
HENDERSON NC   PTCLDY    44  39  83 SW5       29.88S                  
GREENSBORO     PTCLDY    45  42  89 NW8       29.92R                  
ROCKY MOUNT    PTCLDY    49  44  83 SW5       29.89R                  
$$

VAZ100-191200-
MARINE
  
STATION/POSITION TIME  TEMP    WIND        PRES    WAVE   SWELL
                       AIR SEA DIR/SP/G            HT/PER HT/PER
                 (UTC) (F)     (DEG/KT/KT) (MB)    (FT/S) (FT/S)
CAPE MAY NJ      1048   49 40  240/  6/  7 1009.1R
LEWES DE         1048   58 40  250/  6/  8 1009.5R
OCEAN-CITY-INLET 1048   58 42  300/  8/ 12 1009.9S
WACHAPREAGUE VA  1048   56 45  250/  3/  4 1009.7F
THOMAS POINT MD  1100   59 40  280/  6/  7   N/A
GOOSES REEF MD   1100   51 40  260/  8/  8 1010.9
COVE POINT MD    1048   60     290/ 10/ 13 1010.5R
SOLOMONS ISLAND  1048   56 42  340/  4/  5   N/A
BISHOPS HEAD MD  1042   48 43  270/  7/  8 1010.0R
PINEY POINT MD   1048           10/  9/  9   N/A
POTOMAC MD       1100   51 43  340/  6/  6 1008.9    1
CAMBRIDGE MD     1048   58 40  240/  7/ 10 1009.2R
LEWISETTA VA     1048   57 43  280/  7/  8 1009.4R
RAPPAHANNOCK LGT 1048          200/  8/  9 1010.6S
YORK RVR RNG VA  1048   55     240/ 12/ 12 1009.3F
YORKTOWN VA      1048   56 45  210/  5/  8 1009.8S
JAMESTOWN VA     1100   53 48  220/  4/  4   N/A     0
DOMINION TERM VA 1048   53     250/  6/  7 1010.7R
KIPTOPEKE VA     1048      45  220/  6/  8   N/A
CHES BAY BRIDGE  1048   57 45  230/  9/ 10 1010.4R
CAPE HENRY VA    1048   56     220/  7/  9   N/A
WILLOUBY STN VA  1048          230/ 10/ 10   N/A
S CRANEY ISL VA  1048   55     220/  3/  4 1010.6R
CAPE HENRY BUOY  1042      46                N/A     2/ 6
OFFSHORE WE BUOY 1051      47                N/A     3/ 7
64NM E OF VA BCH 1050   54 51  220/ 12/ 12 1010.6S   4/ 6   3/ 6
DUCK PIER NC     1048   55 47  220/  9/ 11 1010.5F
44100 DUCK FRF   1035      47                N/A     2/ 6
44056 DUCK FRF   1030      47                N/A     1/ 6
OREGON INLET NC  1048          160/  5/  6   N/A
HATTERAS NC      1048   57 56  280/ 10/ 12 1011.3F
DIAMOND SHLS NC  1050   63 68  310/ 12/ 14 1011.6F   3/ 5   2/ 6
CAPE LOOKOUT NC  1000   55     280/  7/  8 1012.1S
$$
  

Return to Home page


Western Regional Climate Center, wrcc@dri.edu